FENGYUN 1C DEB

Satellite information

Favourite Embed

Satellite Type and Status

DEBRISIN ORBIT

Key statistics

Satellite FENGYUN 1C DEB at a glance.

Uptime

9715

Days in orbit

Revolutions

≈ 15.0

Per day

Orbit

SSO

Sun Synchronous Orbit

Inclination

98.6

Latest

Satellite identification and parameters

Extended collection of information and parameters for FENGYUN 1C DEB.

Object identification

Identified? True

Debris? True

Object name: FENGYUN 1C DEB

International designator: 1999-025BLC

Object number (NORAD): 31222

Object ID (CCSDS): 31222

Country: PEOPLES REPUBLIC OF CHINA (PRC)

Current information (Y/N): Y

RCS size: SMALL

Orbital parameters

Period: 96.144 minutes

Inclination: 98.611 deg

SMA: 6951.998 km

Apoapsis: 692.466 km

Periapsis: 455.261 km

RAAN: 54.7317 deg

Eccentricy: 0.0170602

Argument of periapsis: 75.4276 deg

Mean anomaly: 286.5795 deg

Mean motion: 14.97746404 rev/day

Mean motion (dot): 0.00014012 rev/day2

B* drag term: 0.00088776 1/REarth

Two-line elements (TLE)

Creation date: Dec. 11, 2025, 7:56 a.m.

Reference frame: TEME

Reference center: EARTH

Epoch: Dec. 10, 2025, 10:36 p.m. UTC

TLE line 0: 0 FENGYUN 1C DEB

TLE line 1: 1 31222U 99025BLC 25344.94221295 .00014012 00000-0 88776-3 0 9994

TLE line 2: 2 31222 98.6110 54.7317 0170602 75.4276 286.5795 14.97746404999578

Live tracking on map

Real-time ground track for satellite FENGYUN 1C DEB.

In-orbit conjunctions

A list of the most updated potential collisions computed for object FENGYUN 1C DEB.

Target Orbit TCA Probability of collision Miss distance Type
OBJECT C LEO 2025-09-29 20:36:59 0.0001719286 691.0 (m) UNKNOWN
CZ-4C R/B SSO 2025-03-30 19:15:03 0.0002029503 424.0 (m) ROCKET BODY
THOR BURNER 2 R/B SSO 2024-09-26 05:44:33 0.001098861 99.0 (m) ROCKET BODY

Associated space launch

Chinese polar orbiting meteorological satellite

FENGYUN 1C DEB was lifted into orbit during the mission ‘Long March 4B | Feng Yun 1C’, on board a Long March 4B space rocket.

The launch took place on May 10, 1999, 1:33 a.m. from Launch Complex 7.

For more information about the launch, click the button.

Launch to space Long March 4B | Feng Yun 1C
Long March 4B | Feng Yun 1C

Agency: N/A

Status: Launch Successful

Launch date: May 10, 1999, 1:33 a.m. UTC

Rocket: Long March 4B

Launch pad: Launch Complex 7

Location: Taiyuan Satellite Launch Center, People's Republic of China

...

Latest news about this satellite

There are no fresh news available about this satellite. Check back as we update our databases every day.


Newsletter sign-up

Weekly statistics, charts and insights to help you stay on top of the space industry.